CFG1VT LGKL-EDDF

Flight info

Callsign CFG1VT
Flight time 2h 34m
Altitude 32000
Route ETILI UM872 KFN UN731 YNN UL604 DIMIS DCT ADDER DCT UNDER DCT KUSIB DCT PODET DCT SIMBA DCT AKINI T161 DEBHI
Aircraft A21N/M-SBDE3FGHIJ1J4J7LORVWXYZ/SB2D1G1

Departure

Time 2026-05-01 09:41
Airport Kalamata Airport (LGKL)

Arrival

Time 2026-05-01 12:15
Airport Frankfurt Main Airport (EDDF)
Time Latitude Longitude Altitude Speed Heading
2026-05-01 09:02 37.05538 22.03253 40 ft 0 kts 283°
2026-05-01 09:31 37.05535 22.03242 40 ft 1 kts 247°
2026-05-01 09:31 37.05526 22.03218 38 ft 5 kts 243°
2026-05-01 09:31 37.05528 22.03088 40 ft 11 kts 284°
2026-05-01 09:32 37.05542 22.03022 40 ft 12 kts 284°
2026-05-01 09:32 37.05657 22.02942 39 ft 14 kts 349°
2026-05-01 09:32 37.05765 22.02917 39 ft 18 kts 349°
2026-05-01 09:33 37.05892 22.02888 39 ft 19 kts 349°
2026-05-01 09:33 37.06025 22.02857 39 ft 20 kts 349°
2026-05-01 09:33 37.06304 22.02792 39 ft 21 kts 349°
2026-05-01 09:34 37.06447 22.02756 39 ft 21 kts 349°
2026-05-01 09:34 37.06596 22.02722 39 ft 22 kts 349°
2026-05-01 09:34 37.06908 22.02651 39 ft 23 kts 349°
2026-05-01 09:35 37.07071 22.02612 39 ft 24 kts 349°
2026-05-01 09:35 37.07410 22.02534 39 ft 25 kts 349°
2026-05-01 09:35 37.07586 22.02492 39 ft 26 kts 349°
2026-05-01 09:36 37.07767 22.02450 39 ft 27 kts 350°
2026-05-01 09:36 37.07909 22.02417 40 ft 15 kts 349°
2026-05-01 09:36 37.07998 22.02396 40 ft 12 kts 349°
2026-05-01 09:36 37.08073 22.02378 40 ft 6 kts 349°
2026-05-01 09:37 37.08114 22.02369 38 ft 6 kts 350°
2026-05-01 09:37 37.08182 22.02302 40 ft 9 kts 255°
2026-05-01 09:37 37.08161 22.02235 38 ft 2 kts 204°
2026-05-01 09:38 37.08165 22.02272 39 ft 4 kts 57°
2026-05-01 09:38 37.08179 22.02308 38 ft 6 kts 82°
2026-05-01 09:38 37.08155 22.02357 40 ft 8 kts 157°
2026-05-01 09:39 37.07999 22.02396 40 ft 14 kts 169°
2026-05-01 09:39 37.07914 22.02401 40 ft 10 kts 214°
2026-05-01 09:39 37.07895 22.02324 40 ft 10 kts 248°
2026-05-01 09:40 37.07832 22.02308 39 ft 11 kts 168°
2026-05-01 09:40 37.07031 22.02496 39 ft 125 kts 169°
2026-05-01 09:40 37.06006 22.02737 214 ft 156 kts 170°
2026-05-01 09:41 37.04967 22.02933 859 ft 149 kts 172°
2026-05-01 09:41 37.02913 22.02675 1725 ft 166 kts 218°
2026-05-01 09:41 37.02279 22.01430 2112 ft 184 kts 256°
2026-05-01 09:42 37.02444 21.99799 2533 ft 204 kts 297°
2026-05-01 09:42 37.03480 21.98465 2913 ft 225 kts 320°
2026-05-01 09:42 37.06079 21.95651 3719 ft 263 kts 312°
2026-05-01 09:43 37.08571 21.92268 5388 ft 265 kts 310°
2026-05-01 09:43 37.09812 21.90553 6231 ft 266 kts 310°
2026-05-01 09:43 37.11065 21.88832 7012 ft 268 kts 311°
2026-05-01 09:44 37.13600 21.85376 8548 ft 270 kts 310°
2026-05-01 09:44 37.14901 21.83660 9262 ft 276 kts 317°
2026-05-01 09:44 37.16560 21.82434 10047 ft 280 kts 335°
2026-05-01 09:45 37.18427 21.81689 10499 ft 293 kts 340°
2026-05-01 09:45 37.22599 21.80180 11017 ft 332 kts 340°
2026-05-01 09:45 37.24874 21.79332 11305 ft 349 kts 339°
2026-05-01 09:46 37.27232 21.78446 11873 ft 355 kts 339°
2026-05-01 09:46 37.29607 21.77546 12553 ft 358 kts 339°
2026-05-01 09:46 37.32005 21.76632 13206 ft 361 kts 339°
2026-05-01 09:46 37.34426 21.75703 13877 ft 364 kts 338°
2026-05-01 09:47 37.36859 21.74768 14458 ft 367 kts 338°
2026-05-01 09:47 37.39313 21.73824 15052 ft 370 kts 338°
2026-05-01 09:47 37.41802 21.72867 15622 ft 372 kts 338°
2026-05-01 09:47 37.44262 21.71921 16184 ft 376 kts 338°
2026-05-01 09:48 37.46771 21.70955 16734 ft 379 kts 338°
2026-05-01 09:48 37.49316 21.69974 17302 ft 383 kts 338°
2026-05-01 09:48 37.51880 21.68985 17876 ft 386 kts 338°
2026-05-01 09:48 37.54464 21.67988 18440 ft 389 kts 338°
2026-05-01 09:49 37.57028 21.66999 18917 ft 391 kts 338°
2026-05-01 09:49 37.59636 21.65991 19416 ft 393 kts 337°
2026-05-01 09:49 37.62258 21.64977 19915 ft 395 kts 337°
2026-05-01 09:49 37.64896 21.63954 20401 ft 397 kts 337°
2026-05-01 09:50 37.67542 21.62928 20892 ft 399 kts 337°
2026-05-01 09:50 37.70202 21.61897 21379 ft 400 kts 337°
2026-05-01 09:50 37.72877 21.60860 21853 ft 402 kts 336°
2026-05-01 09:50 37.75565 21.59817 22322 ft 404 kts 336°
2026-05-01 09:51 37.78261 21.58771 22801 ft 406 kts 336°
2026-05-01 09:51 37.80973 21.57718 23271 ft 408 kts 336°
2026-05-01 09:51 37.83652 21.56673 23714 ft 409 kts 336°
2026-05-01 09:51 37.86381 21.55608 24051 ft 411 kts 336°
2026-05-01 09:52 37.89122 21.54539 24432 ft 412 kts 336°
2026-05-01 09:52 37.91872 21.53459 24831 ft 414 kts 335°
2026-05-01 09:52 37.94628 21.52381 25231 ft 415 kts 335°
2026-05-01 09:52 37.97402 21.51301 25625 ft 416 kts 335°
2026-05-01 09:53 38.00169 21.50224 25997 ft 416 kts 335°
2026-05-01 09:53 38.02939 21.49143 26403 ft 418 kts 335°
2026-05-01 09:53 38.05725 21.48054 26784 ft 418 kts 334°
2026-05-01 09:53 38.08474 21.46975 27159 ft 419 kts 334°
2026-05-01 09:54 38.11255 21.45884 27556 ft 419 kts 334°
2026-05-01 09:54 38.14047 21.44788 27952 ft 418 kts 334°
2026-05-01 09:54 38.16821 21.43700 28356 ft 417 kts 334°
2026-05-01 09:54 38.19594 21.42612 28768 ft 415 kts 333°
2026-05-01 09:55 38.22350 21.41528 29178 ft 413 kts 333°
2026-05-01 09:55 38.25088 21.40450 29636 ft 411 kts 333°
2026-05-01 09:55 38.27814 21.39372 30064 ft 408 kts 333°
2026-05-01 09:55 38.30523 21.38302 30440 ft 406 kts 333°
2026-05-01 09:56 38.33216 21.37239 30806 ft 403 kts 333°
2026-05-01 09:56 38.35887 21.36183 31175 ft 401 kts 333°
2026-05-01 09:56 38.38542 21.35140 31547 ft 397 kts 332°
2026-05-01 09:56 38.41142 21.34114 31913 ft 394 kts 332°
2026-05-01 09:57 38.43766 21.33073 32089 ft 396 kts 332°
2026-05-01 09:57 38.46414 21.32020 32117 ft 401 kts 332°
2026-05-01 09:57 38.51766 21.29895 32129 ft 403 kts 333°
2026-05-01 09:58 38.57095 21.27781 32099 ft 403 kts 333°
2026-05-01 09:58 38.62460 21.25638 32094 ft 403 kts 332°
2026-05-01 09:59 38.67827 21.23498 32097 ft 404 kts 333°
2026-05-01 09:59 38.73165 21.21374 32098 ft 404 kts 333°
2026-05-01 10:00 38.78540 21.19224 32103 ft 404 kts 332°
2026-05-01 10:00 38.83909 21.17067 32100 ft 403 kts 332°
2026-05-01 10:01 38.89235 21.14923 32098 ft 403 kts 332°
2026-05-01 10:01 38.94598 21.12759 32104 ft 404 kts 332°
2026-05-01 10:02 38.99977 21.10603 32104 ft 406 kts 333°
2026-05-01 10:02 39.05388 21.08433 32099 ft 406 kts 333°
2026-05-01 10:03 39.10789 21.06255 32098 ft 406 kts 333°
2026-05-01 10:03 39.16158 21.04079 32104 ft 407 kts 333°
2026-05-01 10:04 39.21570 21.01902 32117 ft 408 kts 333°
2026-05-01 10:04 39.27004 20.99710 32097 ft 408 kts 333°
2026-05-01 10:05 39.32404 20.97516 32101 ft 409 kts 333°
2026-05-01 10:05 39.37843 20.95303 32106 ft 409 kts 333°
2026-05-01 10:06 39.43274 20.93089 32137 ft 410 kts 333°
2026-05-01 10:06 39.48746 20.90855 32120 ft 412 kts 333°
2026-05-01 10:07 39.54179 20.88631 32119 ft 412 kts 333°
2026-05-01 10:07 39.59651 20.86392 32112 ft 412 kts 333°
2026-05-01 10:08 39.67875 20.83010 32133 ft 415 kts 334°
2026-05-01 10:09 39.73172 20.80248 32114 ft 408 kts 327°
2026-05-01 10:09 39.78318 20.77105 32114 ft 408 kts 327°
2026-05-01 10:10 39.83427 20.73971 32106 ft 408 kts 327°
2026-05-01 10:10 39.91165 20.69265 32127 ft 411 kts 328°
2026-05-01 10:11 39.96385 20.66073 32106 ft 413 kts 328°
2026-05-01 10:11 40.01583 20.62907 32103 ft 413 kts 328°
2026-05-01 10:12 40.05920 20.60260 32089 ft 414 kts 328°
2026-05-01 10:13 40.14555 20.54805 32103 ft 414 kts 327°
2026-05-01 10:13 40.19694 20.51511 32105 ft 414 kts 327°
2026-05-01 10:14 40.27471 20.46527 32103 ft 414 kts 328°
2026-05-01 10:14 40.32633 20.43211 32094 ft 415 kts 328°
2026-05-01 10:15 40.37839 20.39863 32105 ft 416 kts 328°
2026-05-01 10:15 40.43015 20.36528 32108 ft 416 kts 328°
2026-05-01 10:16 40.48217 20.33173 32102 ft 416 kts 328°
2026-05-01 10:17 40.56007 20.28122 32114 ft 416 kts 328°
2026-05-01 10:17 40.63765 20.23058 32114 ft 419 kts 328°
2026-05-01 10:18 40.70723 20.18509 32100 ft 419 kts 328°
2026-05-01 10:19 40.75948 20.15077 32114 ft 419 kts 328°
2026-05-01 10:19 40.81184 20.11646 32111 ft 420 kts 329°
2026-05-01 10:20 40.89074 20.06464 32107 ft 423 kts 329°
2026-05-01 10:20 40.94317 20.03008 32111 ft 423 kts 329°
2026-05-01 10:21 41.02224 19.97783 32116 ft 423 kts 329°
2026-05-01 10:22 41.09963 19.92269 32126 ft 421 kts 325°
2026-05-01 10:23 41.17522 19.86296 32142 ft 421 kts 325°
2026-05-01 10:23 41.25050 19.80333 32134 ft 421 kts 325°
2026-05-01 10:24 41.35134 19.72314 32156 ft 422 kts 326°
2026-05-01 10:25 41.45203 19.64286 32148 ft 422 kts 326°
2026-05-01 10:26 41.50250 19.60257 32147 ft 422 kts 326°
2026-05-01 10:27 41.60333 19.52177 32162 ft 425 kts 326°
2026-05-01 10:28 41.67932 19.46067 32165 ft 424 kts 326°
2026-05-01 10:28 41.72990 19.41991 32304 ft 424 kts 326°
2026-05-01 10:28 41.75521 19.39946 32523 ft 425 kts 326°
2026-05-01 10:29 41.80580 19.35853 33053 ft 423 kts 327°
2026-05-01 10:29 41.83069 19.33830 33312 ft 422 kts 327°
2026-05-01 10:30 41.88087 19.29766 33852 ft 419 kts 327°
2026-05-01 10:30 41.93072 19.25724 34206 ft 420 kts 327°
2026-05-01 10:31 42.03224 19.17458 34200 ft 430 kts 327°
2026-05-01 10:32 42.10921 19.11172 34194 ft 431 kts 327°
2026-05-01 10:33 42.21167 19.02762 34198 ft 431 kts 327°
2026-05-01 10:34 42.28837 18.96461 34196 ft 432 kts 327°
2026-05-01 10:34 42.33986 18.92216 34195 ft 432 kts 327°
2026-05-01 10:35 42.41654 18.85879 34195 ft 432 kts 327°
2026-05-01 10:35 42.46796 18.81613 34199 ft 432 kts 328°
2026-05-01 10:36 42.54445 18.75265 34184 ft 430 kts 328°
2026-05-01 10:37 42.59556 18.71011 34199 ft 430 kts 328°
2026-05-01 10:37 42.67160 18.64663 34201 ft 427 kts 328°
2026-05-01 10:38 42.72242 18.60410 34207 ft 429 kts 328°
2026-05-01 10:38 42.77343 18.56131 34207 ft 430 kts 328°
2026-05-01 10:39 42.82448 18.51845 34210 ft 431 kts 328°
2026-05-01 10:39 42.87540 18.47561 34218 ft 427 kts 328°
2026-05-01 10:40 42.92609 18.43289 34217 ft 429 kts 329°
2026-05-01 10:40 42.97694 18.38986 34225 ft 435 kts 329°
2026-05-01 10:41 43.02811 18.34658 34226 ft 432 kts 329°
2026-05-01 10:42 43.10467 18.28158 34233 ft 431 kts 329°
2026-05-01 10:42 43.15545 18.23836 34241 ft 431 kts 330°
2026-05-01 10:43 43.20677 18.19458 34247 ft 431 kts 330°
2026-05-01 10:43 43.25723 18.15143 34244 ft 429 kts 331°
2026-05-01 10:44 43.30757 18.10838 34233 ft 427 kts 330°
2026-05-01 10:44 43.35824 18.06493 34235 ft 430 kts 330°
2026-05-01 10:45 43.40926 18.02116 34249 ft 431 kts 330°
2026-05-01 10:45 43.45990 17.97759 34253 ft 429 kts 330°
2026-05-01 10:46 43.50991 17.93443 34248 ft 426 kts 330°
2026-05-01 10:46 43.56048 17.89067 34257 ft 430 kts 329°
2026-05-01 10:47 43.61177 17.84625 34289 ft 437 kts 330°
2026-05-01 10:47 43.66294 17.80181 34298 ft 437 kts 331°
2026-05-01 10:48 43.71432 17.75720 34297 ft 433 kts 331°
2026-05-01 10:48 43.76547 17.71262 34311 ft 435 kts 331°
2026-05-01 10:49 43.81667 17.66790 34315 ft 437 kts 331°
2026-05-01 10:49 43.86823 17.62272 34327 ft 439 kts 331°
2026-05-01 10:50 43.91988 17.57736 34325 ft 439 kts 331°
2026-05-01 10:50 43.97153 17.53200 34335 ft 438 kts 331°
2026-05-01 10:51 44.02294 17.48675 34340 ft 439 kts 332°
2026-05-01 10:51 44.07468 17.44114 34357 ft 439 kts 332°
2026-05-01 10:52 44.12631 17.39549 34350 ft 440 kts 332°
2026-05-01 10:52 44.17758 17.35001 34349 ft 440 kts 332°
2026-05-01 10:53 44.22918 17.30423 34352 ft 439 kts 332°
2026-05-01 10:53 44.28080 17.25827 34357 ft 439 kts 332°
2026-05-01 10:54 44.33239 17.21226 34374 ft 439 kts 332°
2026-05-01 10:54 44.38386 17.16624 34370 ft 438 kts 332°
2026-05-01 10:55 44.43492 17.12052 34389 ft 439 kts 332°
2026-05-01 10:55 44.48642 17.07433 34385 ft 438 kts 332°
2026-05-01 10:56 44.53776 17.02817 34393 ft 437 kts 333°
2026-05-01 10:56 44.58905 16.98193 34398 ft 438 kts 333°
2026-05-01 10:57 44.64001 16.93591 34398 ft 438 kts 333°
2026-05-01 10:57 44.69125 16.88953 34402 ft 438 kts 333°
2026-05-01 10:58 44.74247 16.84310 34383 ft 436 kts 334°
2026-05-01 10:58 44.79313 16.79707 34413 ft 437 kts 334°
2026-05-01 10:59 44.84421 16.75055 34401 ft 437 kts 334°
2026-05-01 10:59 44.89517 16.70403 34403 ft 437 kts 334°
2026-05-01 11:00 44.94621 16.65733 34411 ft 437 kts 334°
2026-05-01 11:00 44.99709 16.61070 34387 ft 435 kts 335°
2026-05-01 11:01 45.04799 16.56391 34405 ft 435 kts 335°
2026-05-01 11:01 45.09854 16.51732 34411 ft 435 kts 335°
2026-05-01 11:02 45.14949 16.47070 34411 ft 433 kts 337°
2026-05-01 11:02 45.20159 16.42822 34408 ft 432 kts 339°
2026-05-01 11:03 45.25378 16.38600 34398 ft 431 kts 339°
2026-05-01 11:03 45.30562 16.34388 34413 ft 431 kts 339°
2026-05-01 11:04 45.34905 16.30848 34417 ft 431 kts 339°
2026-05-01 11:04 45.40115 16.26602 34404 ft 431 kts 339°
2026-05-01 11:05 45.45333 16.22342 34413 ft 432 kts 339°
2026-05-01 11:05 45.50529 16.18084 34410 ft 432 kts 339°
2026-05-01 11:06 45.55735 16.13807 34383 ft 430 kts 339°
2026-05-01 11:06 45.60887 16.09564 34413 ft 430 kts 339°
2026-05-01 11:07 45.68678 16.03138 34427 ft 430 kts 339°
2026-05-01 11:07 45.73873 15.98843 34405 ft 430 kts 339°
2026-05-01 11:08 45.79017 15.94576 34418 ft 430 kts 339°
2026-05-01 11:09 45.86776 15.88124 34398 ft 428 kts 339°
2026-05-01 11:09 45.91926 15.83834 34418 ft 429 kts 339°
2026-05-01 11:10 45.99671 15.77361 34417 ft 429 kts 339°
2026-05-01 11:10 46.04802 15.73057 34413 ft 429 kts 339°
2026-05-01 11:11 46.09951 15.68732 34402 ft 428 kts 339°
2026-05-01 11:11 46.15107 15.64392 34419 ft 429 kts 339°
2026-05-01 11:12 46.20017 15.59268 34421 ft 441 kts 329°
2026-05-01 11:12 46.24710 15.53566 34423 ft 441 kts 329°
2026-05-01 11:13 46.29381 15.47902 34422 ft 441 kts 329°
2026-05-01 11:13 46.34091 15.42196 34408 ft 441 kts 329°
2026-05-01 11:14 46.38799 15.36478 34392 ft 440 kts 328°
2026-05-01 11:14 46.43460 15.30803 34407 ft 440 kts 328°
2026-05-01 11:15 46.48147 15.25090 34414 ft 440 kts 328°
2026-05-01 11:15 46.52834 15.19354 34415 ft 440 kts 328°
2026-05-01 11:16 46.57523 15.13609 34409 ft 440 kts 328°
2026-05-01 11:16 46.62173 15.07893 34385 ft 439 kts 327°
2026-05-01 11:17 46.66836 15.02149 34424 ft 439 kts 327°
2026-05-01 11:17 46.71505 14.96388 34413 ft 439 kts 327°
2026-05-01 11:18 46.76147 14.90642 34422 ft 439 kts 327°
2026-05-01 11:18 46.80807 14.84862 34423 ft 439 kts 327°
2026-05-01 11:19 46.85465 14.79068 34392 ft 439 kts 327°
2026-05-01 11:19 46.90087 14.73306 34415 ft 439 kts 327°
2026-05-01 11:20 46.94733 14.67504 34409 ft 439 kts 327°
2026-05-01 11:20 46.99385 14.61684 34413 ft 439 kts 326°
2026-05-01 11:21 47.04026 14.55856 34411 ft 438 kts 326°
2026-05-01 11:21 47.08630 14.50058 34391 ft 438 kts 326°
2026-05-01 11:22 47.13261 14.44218 34402 ft 438 kts 326°
2026-05-01 11:22 47.17879 14.38378 34409 ft 438 kts 326°
2026-05-01 11:23 47.22511 14.32505 34414 ft 439 kts 326°
2026-05-01 11:23 47.27134 14.26637 34411 ft 438 kts 326°
2026-05-01 11:24 47.31718 14.20804 34387 ft 439 kts 326°
2026-05-01 11:25 47.38664 14.11938 34409 ft 440 kts 325°
2026-05-01 11:25 47.45606 14.03039 34410 ft 440 kts 325°
2026-05-01 11:26 47.52547 13.94110 34411 ft 441 kts 325°
2026-05-01 11:27 47.57167 13.88147 34391 ft 439 kts 325°
2026-05-01 11:27 47.61746 13.82224 34401 ft 439 kts 324°
2026-05-01 11:28 47.66339 13.76268 34404 ft 439 kts 324°
2026-05-01 11:28 47.70944 13.70283 34409 ft 439 kts 324°
2026-05-01 11:29 47.77841 13.61288 34406 ft 439 kts 324°
2026-05-01 11:30 47.84684 13.52336 34403 ft 438 kts 324°
2026-05-01 11:30 47.89261 13.46331 34412 ft 438 kts 324°
2026-05-01 11:31 47.93845 13.40300 34414 ft 438 kts 324°
2026-05-01 11:31 47.98399 13.34295 34417 ft 439 kts 324°
2026-05-01 11:32 48.02976 13.28243 34389 ft 439 kts 324°
2026-05-01 11:32 48.07539 13.22198 34412 ft 438 kts 323°
2026-05-01 11:33 48.12113 13.16125 34402 ft 439 kts 323°
2026-05-01 11:33 48.16638 13.10097 34428 ft 439 kts 323°
2026-05-01 11:34 48.21208 13.03993 34420 ft 439 kts 323°
2026-05-01 11:34 48.25495 12.97424 34421 ft 443 kts 317°
2026-05-01 11:35 48.29592 12.90469 34419 ft 444 kts 316°
2026-05-01 11:35 48.33666 12.83550 34420 ft 444 kts 316°
2026-05-01 11:36 48.37760 12.76584 34424 ft 444 kts 316°
2026-05-01 11:36 48.41853 12.69605 34426 ft 444 kts 316°
2026-05-01 11:37 48.45934 12.62623 34428 ft 444 kts 316°
2026-05-01 11:37 48.50017 12.55621 34428 ft 444 kts 316°
2026-05-01 11:38 48.54095 12.48611 34421 ft 444 kts 316°
2026-05-01 11:38 48.58148 12.41621 34426 ft 444 kts 316°
2026-05-01 11:39 48.62224 12.34578 34427 ft 445 kts 316°
2026-05-01 11:39 48.66302 12.27508 34425 ft 444 kts 315°
2026-05-01 11:40 48.70344 12.20483 34419 ft 444 kts 315°
2026-05-01 11:40 48.74130 12.13075 34418 ft 451 kts 302°
2026-05-01 11:40 48.75344 12.08663 34415 ft 458 kts 289°
2026-05-01 11:41 48.75990 12.03901 34427 ft 461 kts 283°
2026-05-01 11:41 48.76956 11.94345 34435 ft 461 kts 282°
2026-05-01 11:42 48.77961 11.84724 34400 ft 461 kts 282°
2026-05-01 11:42 48.78978 11.75145 34420 ft 457 kts 282°
2026-05-01 11:43 48.79979 11.65677 34415 ft 457 kts 282°
2026-05-01 11:43 48.80980 11.56096 34415 ft 457 kts 282°
2026-05-01 11:44 48.82443 11.41860 34415 ft 457 kts 282°
2026-05-01 11:44 48.83415 11.32334 34420 ft 456 kts 282°
2026-05-01 11:45 48.85014 11.23115 34408 ft 448 kts 300°
2026-05-01 11:45 48.86653 11.19130 34417 ft 442 kts 312°
2026-05-01 11:45 48.88768 11.15781 34426 ft 438 kts 321°
2026-05-01 11:46 48.93261 11.09641 34421 ft 438 kts 321°
2026-05-01 11:46 48.97768 11.03402 34405 ft 435 kts 320°
2026-05-01 11:47 49.02164 10.97235 34074 ft 430 kts 320°
2026-05-01 11:47 49.04381 10.94125 33779 ft 436 kts 320°
2026-05-01 11:47 49.06618 10.90977 33390 ft 437 kts 320°
2026-05-01 11:48 49.08822 10.87871 32755 ft 435 kts 320°
2026-05-01 11:48 49.11041 10.84736 32043 ft 435 kts 320°
2026-05-01 11:48 49.13264 10.81594 31344 ft 435 kts 320°
2026-05-01 11:48 49.15486 10.78446 30659 ft 435 kts 319°
2026-05-01 11:49 49.17698 10.75308 29918 ft 434 kts 320°
2026-05-01 11:49 49.19893 10.72129 29229 ft 434 kts 317°
2026-05-01 11:49 49.22023 10.68805 28602 ft 439 kts 317°
2026-05-01 11:49 49.24124 10.65503 28020 ft 435 kts 316°
2026-05-01 11:50 49.26222 10.62196 27388 ft 432 kts 316°
2026-05-01 11:50 49.28314 10.58899 26757 ft 429 kts 316°
2026-05-01 11:50 49.30386 10.55625 26143 ft 426 kts 316°
2026-05-01 11:50 49.31753 10.53460 25753 ft 424 kts 316°
2026-05-01 11:51 49.33800 10.50221 25151 ft 422 kts 316°
2026-05-01 11:51 49.35818 10.46940 24541 ft 421 kts 313°
2026-05-01 11:51 49.37584 10.43362 24094 ft 419 kts 307°
2026-05-01 11:51 49.39241 10.39744 23774 ft 418 kts 307°
2026-05-01 11:52 49.40905 10.36079 23485 ft 418 kts 307°
2026-05-01 11:52 49.42569 10.32417 23206 ft 417 kts 307°
2026-05-01 11:52 49.44228 10.28759 22927 ft 417 kts 307°
2026-05-01 11:52 49.45888 10.25100 22661 ft 416 kts 307°
2026-05-01 11:53 49.47545 10.21453 22391 ft 414 kts 307°
2026-05-01 11:53 49.49172 10.17857 22130 ft 413 kts 307°
2026-05-01 11:53 49.50819 10.14226 21866 ft 413 kts 307°
2026-05-01 11:53 49.52460 10.10600 21610 ft 413 kts 307°
2026-05-01 11:54 49.54099 10.06977 21347 ft 411 kts 307°
2026-05-01 11:54 49.55732 10.03362 21086 ft 408 kts 306°
2026-05-01 11:54 49.57346 9.99780 20834 ft 407 kts 306°
2026-05-01 11:54 49.58960 9.96193 20595 ft 406 kts 306°
2026-05-01 11:55 49.60549 9.92652 20351 ft 406 kts 306°
2026-05-01 11:55 49.62154 9.89072 20087 ft 405 kts 306°
2026-05-01 11:55 49.63755 9.85497 19850 ft 403 kts 306°
2026-05-01 11:55 49.65349 9.81931 19602 ft 402 kts 306°
2026-05-01 11:56 49.66919 9.78423 19360 ft 401 kts 306°
2026-05-01 11:56 49.68511 9.74861 19108 ft 401 kts 306°
2026-05-01 11:56 49.70093 9.71312 18879 ft 401 kts 306°
2026-05-01 11:56 49.71674 9.67757 18620 ft 401 kts 306°
2026-05-01 11:57 49.73253 9.64204 18207 ft 398 kts 306°
2026-05-01 11:57 49.74792 9.60736 17759 ft 396 kts 306°
2026-05-01 11:57 49.76345 9.57230 17298 ft 394 kts 306°
2026-05-01 11:57 49.77891 9.53736 16847 ft 392 kts 305°
2026-05-01 11:58 49.79430 9.50253 16394 ft 391 kts 305°
2026-05-01 11:58 49.80960 9.46787 15946 ft 390 kts 305°
2026-05-01 11:58 49.84012 9.39852 15053 ft 388 kts 305°
2026-05-01 11:59 49.85522 9.36382 14619 ft 387 kts 303°
2026-05-01 11:59 49.86689 9.32628 14184 ft 387 kts 289°
2026-05-01 11:59 49.87465 9.28636 13733 ft 386 kts 286°
2026-05-01 12:00 49.88940 9.20722 12921 ft 381 kts 286°
2026-05-01 12:00 49.89682 9.16795 12546 ft 378 kts 286°
2026-05-01 12:00 49.91153 9.09039 11812 ft 372 kts 286°
2026-05-01 12:01 49.91876 9.05223 11473 ft 364 kts 285°
2026-05-01 12:01 49.92580 9.01517 11247 ft 351 kts 285°
2026-05-01 12:01 49.93263 8.97947 10965 ft 338 kts 285°
2026-05-01 12:01 49.93914 8.94518 10643 ft 324 kts 285°
2026-05-01 12:02 49.94539 8.91226 10346 ft 311 kts 285°
2026-05-01 12:02 49.95144 8.88030 9862 ft 306 kts 284°
2026-05-01 12:02 49.95735 8.84912 9369 ft 300 kts 285°
2026-05-01 12:02 49.96320 8.81836 9046 ft 296 kts 284°
2026-05-01 12:03 49.96902 8.78774 8797 ft 295 kts 284°
2026-05-01 12:03 49.97476 8.75737 8560 ft 291 kts 284°
2026-05-01 12:03 49.97969 8.72697 8319 ft 287 kts 275°
2026-05-01 12:03 49.97840 8.69675 8066 ft 277 kts 251°
2026-05-01 12:04 49.97211 8.66898 7840 ft 270 kts 245°
2026-05-01 12:04 49.96533 8.64248 7620 ft 265 kts 245°
2026-05-01 12:04 49.95862 8.61598 7412 ft 263 kts 245°
2026-05-01 12:04 49.95209 8.58958 7192 ft 262 kts 245°
2026-05-01 12:05 49.94562 8.56315 6991 ft 260 kts 245°
2026-05-01 12:05 49.93286 8.51074 6550 ft 258 kts 246°
2026-05-01 12:05 49.92655 8.48475 6333 ft 256 kts 245°
2026-05-01 12:06 49.92024 8.45874 6099 ft 257 kts 246°
2026-05-01 12:06 49.91401 8.43289 5897 ft 255 kts 246°
2026-05-01 12:06 49.90780 8.40717 5674 ft 254 kts 245°
2026-05-01 12:06 49.90162 8.38160 5459 ft 253 kts 245°
2026-05-01 12:07 49.89545 8.35610 5258 ft 252 kts 245°
2026-05-01 12:07 49.88929 8.33067 5059 ft 251 kts 245°
2026-05-01 12:07 49.88318 8.30547 4857 ft 250 kts 245°
2026-05-01 12:07 49.87705 8.28021 4631 ft 250 kts 246°
2026-05-01 12:08 49.87285 8.25418 4406 ft 255 kts 264°
2026-05-01 12:08 49.87556 8.22705 4180 ft 257 kts 290°
2026-05-01 12:08 49.88510 8.20446 3977 ft 246 kts 322°
2026-05-01 12:08 49.89955 8.19337 3942 ft 227 kts 349°
2026-05-01 12:09 49.91500 8.18862 3965 ft 225 kts 353°
2026-05-01 12:09 49.93054 8.18515 3978 ft 226 kts 359°
2026-05-01 12:09 49.94531 8.19025 3960 ft 216 kts 39°
2026-05-01 12:09 49.95425 8.20737 3993 ft 205 kts 72°
2026-05-01 12:10 49.95839 8.22841 3989 ft 204 kts 79°
2026-05-01 12:10 49.96546 8.27114 3819 ft 204 kts 76°
2026-05-01 12:10 49.96980 8.29205 3577 ft 201 kts 74°
2026-05-01 12:11 49.97932 8.33279 3063 ft 200 kts 71°
2026-05-01 12:11 49.98419 8.35311 2798 ft 200 kts 72°
2026-05-01 12:11 49.98890 8.37280 2590 ft 188 kts 72°
2026-05-01 12:12 49.99329 8.39114 2344 ft 180 kts 72°
2026-05-01 12:12 49.99756 8.40899 2098 ft 173 kts 72°
2026-05-01 12:12 50.00164 8.42602 1830 ft 164 kts 73°
2026-05-01 12:12 50.00543 8.44181 1619 ft 145 kts 73°
2026-05-01 12:13 50.00868 8.45556 1355 ft 131 kts 74°
2026-05-01 12:13 50.01188 8.46885 1272 ft 131 kts 73°
2026-05-01 12:13 50.01510 8.48208 1067 ft 130 kts 72°
2026-05-01 12:13 50.01816 8.49517 958 ft 130 kts 72°
2026-05-01 12:14 50.02132 8.50838 749 ft 129 kts 73°
2026-05-01 12:14 50.02443 8.52114 601 ft 124 kts 73°
2026-05-01 12:14 50.02746 8.53387 393 ft 127 kts 71°
2026-05-01 12:14 50.03038 8.54602 346 ft 104 kts 70°
2026-05-01 12:15 50.03228 8.55399 352 ft 55 kts 70°
2026-05-01 12:15 50.03310 8.55744 354 ft 26 kts 70°
2026-05-01 12:15 50.03375 8.56014 353 ft 27 kts 69°
2026-05-01 12:15 50.03462 8.56258 362 ft 24 kts 49°
2026-05-01 12:16 50.03574 8.56420 352 ft 18 kts 39°
2026-05-01 12:16 50.03673 8.56546 357 ft 20 kts 40°
2026-05-01 12:16 50.03770 8.56681 360 ft 18 kts 52°
2026-05-01 12:16 50.03823 8.56861 363 ft 19 kts 69°
2026-05-01 12:17 50.03872 8.57060 366 ft 20 kts 69°
2026-05-01 12:17 50.03922 8.57277 368 ft 22 kts 70°
2026-05-01 12:17 50.03979 8.57509 373 ft 24 kts 70°
2026-05-01 12:17 50.04037 8.57755 371 ft 25 kts 70°
2026-05-01 12:18 50.04099 8.58014 372 ft 26 kts 69°
2026-05-01 12:18 50.04164 8.58284 373 ft 27 kts 70°
2026-05-01 12:18 50.04231 8.58567 374 ft 28 kts 70°
2026-05-01 12:18 50.04301 8.58855 379 ft 29 kts 69°
2026-05-01 12:19 50.04376 8.59165 382 ft 27 kts 70°
2026-05-01 12:19 50.04420 8.59355 381 ft 15 kts 70°
2026-05-01 12:19 50.04451 8.59460 381 ft 7 kts 42°
2026-05-01 12:19 50.04508 8.59475 380 ft 10 kts 357°
2026-05-01 12:20 50.04590 8.59468 378 ft 13 kts 356°
2026-05-01 12:20 50.04694 8.59448 378 ft 16 kts 343°
2026-05-01 12:20 50.04781 8.59398 377 ft 7 kts 338°
2026-05-01 12:20 50.04827 8.59364 376 ft 8 kts 316°
2026-05-01 12:21 50.04845 8.59307 374 ft 5 kts 281°
2026-05-01 12:21 50.04845 8.59281 374 ft 3 kts 262°
2026-05-01 12:21 50.04842 8.59249 374 ft 3 kts 263°
2026-05-01 12:21 50.04860 8.59222 373 ft 4 kts 326°
2026-05-01 12:22 50.04887 8.59205 372 ft 5 kts 339°
2026-05-01 12:22 50.04914 8.59190 370 ft 1 kts 339°
2026-05-01 12:22 50.04919 8.59187 372 ft 0 kts 338°